Weather History for OTBD - February, 2014

Change the Weather History Date:

Thursday, February 27, 2014

  Actual Average Record
Temperature  
Mean Temperature 74 °F -  
Max Temperature 81 °F 79 °F 82 °F (2004)
Min Temperature 66 °F 62 °F 55 °F (2006)
Cooling Degree Days 8    
Growing Degree Days 24 (Base 50)    
Moisture  
Dew Point 56 °F    
Average Humidity 57    
Maximum Humidity 83    
Minimum Humidity 27    
Precipitation  
Precipitation 0.00 in 0.02 in - ()
Sea Level Pressure  
Sea Level Pressure 30.02 in    
Wind  
Wind Speed 4 mph ()    
Max Wind Speed 12 mph    
Max Gust Speed -    
Visibility 7.1 miles    
Events      
Averages and records for this station are not official NWS values.
T = Trace of Precipitation, MM = Missing Value Source: Averaged Metar Reports

Daily Weather History Graph

Daily Weather History Graph

Search for Another Location

Airport or City:

Trip Planner

Search our weather history database for the weather conditions in past years. The results will help you decide how hot, cold, wet, or windy it might be!

Date:

Astronomy

Feb. 27, 2014 Rise Set
Actual Time 5:58 AM AST 5:34 PM AST
Civil Twilight 5:35 AM AST 5:57 PM AST
Nautical Twilight 5:09 AM AST 6:24 PM AST
Astronomical Twilight 4:42 AM AST 6:50 PM AST
Moon 4:03 AM AST (2/27) 3:39 PM AST (2/27)
Length of Visible Light 12h 21m
Length of Day
11h 35m
Waning Crescent, 6% of the Moon is Illuminated
Feb 27
Waning Crescent
Mar 1
New
Mar 8
First Quarter
Mar 16
Full
Mar 24
Last Quarter

Hourly Weather History & Observations

Time (AST) Temp. Heat Index Dew Point Humidity Pressure Visibility Wind Dir Wind Speed Gust Speed Precip Events Conditions
12:00 AM 70 °F - 60 °F 63% 30.04 in 7 mi SE 3.5 mph - -   Partly Cloudy
12:00 AM 69.8 °F - 60.8 °F 73% 30.04 in - SE 3.5 mph - N/A   Clear
12:30 AM 69.8 °F - 60.8 °F 73% 30.04 in - Variable 2.3 mph - N/A   Clear
1:00 AM 68.0 °F - 60.8 °F 78% 30.01 in - Variable 2.3 mph - N/A   Clear
1:30 AM 68.0 °F - 62.6 °F 83% 30.01 in - Calm Calm - N/A   Clear
2:00 AM 68.0 °F - 60.8 °F 78% 30.01 in - Variable 2.3 mph - N/A   Clear
2:30 AM 68.0 °F - 60.8 °F 78% 30.01 in - Variable 2.3 mph - N/A   Clear
3:00 AM 68 °F - 60 °F 68% 30.01 in 7 mi ESE 3.5 mph - -  
3:00 AM 68.0 °F - 60.8 °F 78% 30.01 in - ESE 3.5 mph - N/A   Clear
3:30 AM 68.0 °F - 60.8 °F 78% 30.01 in - Variable 2.3 mph - N/A   Clear
4:00 AM 68.0 °F - 57.2 °F 68% 30.01 in - South 3.5 mph - N/A   Clear
4:30 AM 68.0 °F - 59.0 °F 73% 30.01 in - SW 3.5 mph - N/A   Clear
5:00 AM 68.0 °F - 59.0 °F 73% 30.01 in - SSW 3.5 mph - N/A   Clear
5:30 AM 66.2 °F - 59.0 °F 78% 30.01 in - South 3.5 mph - N/A   Clear
6:00 AM 67 °F - 60 °F 72% 30.04 in 6 mi 2.3 mph - -   Scattered Clouds
6:00 AM 66.2 °F - 60.8 °F 83% 30.04 in - Variable 2.3 mph - N/A   Clear
6:30 AM 69.8 °F - 57.2 °F 64% 30.04 in - SSE 4.6 mph - N/A   Clear
7:00 AM 69.8 °F - 59.0 °F 68% 30.04 in - SSE 4.6 mph - N/A   Clear
8:00 AM 73.4 °F - 59.0 °F 61% 30.06 in - Variable 3.5 mph - N/A   Clear
8:30 AM 75.2 °F - 55.4 °F 50% 30.06 in - SE 8.1 mph - N/A   Clear
9:00 AM 76 °F - 54 °F 35% 30.09 in 7 mi SE 6.9 mph - -   Partly Cloudy
9:00 AM 75.2 °F - 53.6 °F 47% 30.09 in - SE 6.9 mph - N/A   Clear
9:30 AM 77.0 °F - 53.6 °F 44% 30.09 in - SE 8.1 mph - N/A   Clear
10:00 AM 78.8 °F - 53.6 °F 42% 30.06 in - SE 6.9 mph - N/A   Clear
11:00 AM 80.6 °F 82.3 °F 64.4 °F 58% 30.06 in - ESE 9.2 mph - N/A   Clear
12:00 PM 79 °F - 52 °F 28% 30.06 in 9 mi ESE 11.5 mph - -   Partly Cloudy
12:00 PM 78.8 °F - 51.8 °F 39% 30.04 in - ESE 11.5 mph - N/A   Clear
1:00 PM 80.6 °F 80.3 °F 53.6 °F 39% 30.04 in - ESE 10.4 mph - N/A   Clear
2:00 PM 80.6 °F - 50.0 °F 34% 30.01 in - East 10.4 mph - N/A   Clear
2:30 PM 78.8 °F - 50.0 °F 36% 30.01 in - ESE 9.2 mph - N/A   Clear
3:00 PM 78 °F - 50 °F 27% 30.00 in 7 mi ESE 8.1 mph - -   Scattered Clouds
3:00 PM 78.8 °F - 50.0 °F 36% 29.98 in - ESE 8.1 mph - N/A   Clear
3:30 PM 77.0 °F - 50.0 °F 39% 29.98 in - ESE 8.1 mph - N/A   Clear
4:00 PM 77.0 °F - 51.8 °F 41% 29.98 in - ESE 10.4 mph - N/A   Clear
4:30 PM 77.0 °F - 51.8 °F 41% 29.98 in - ESE 6.9 mph - N/A   Clear
5:00 PM 75.2 °F - 51.8 °F 44% 30.01 in - SE 8.1 mph - N/A   Clear
5:30 PM 75.2 °F - 55.4 °F 50% 29.98 in - ESE 8.1 mph - N/A   Clear
6:00 PM 74 °F - 56 °F 43% 30.01 in 7 mi ESE 8.1 mph - -  
6:00 PM 73.4 °F - 55.4 °F 53% 30.01 in - ESE 8.1 mph - N/A   Clear
6:08 PM 73.4 °F - 55.4 °F 53% 30.01 in - ESE 8.1 mph - N/A   Clear
6:30 PM 73.4 °F - 57.2 °F 57% 30.01 in - ESE 4.6 mph - N/A   Clear
7:00 PM - - - N/A% - - SE 3.5 mph - N/A   Clear
7:30 PM 71.6 °F - 59.0 °F 64% 30.01 in - SSE 4.6 mph - N/A   Clear
8:00 PM 71.6 °F - 57.2 °F 60% 30.01 in - Variable 1.2 mph - N/A   Clear
8:30 PM 71.6 °F - 59.0 °F 64% 30.01 in - SSE 3.5 mph - N/A   Clear
9:00 PM 72 °F - 56 °F 47% 30.02 in 7 mi SE 4.6 mph - -  
9:00 PM - - - N/A% 30.01 in - SE 4.6 mph - N/A   Unknown
10:00 PM 71.6 °F - 53.6 °F 53% 30.01 in - ESE 5.8 mph - N/A   Clear
10:30 PM 71.6 °F - 53.6 °F 53% 30.01 in - SE 4.6 mph - N/A   Clear
11:00 PM 71.6 °F - 55.4 °F 57% - - SSE 4.6 mph - N/A   Clear
11:30 PM 69.8 °F - 55.4 °F 60% 29.98 in - SSE 4.6 mph - N/A   Clear